{"data":{"norad_id":58137,"epoch":"2026-05-25T04:20:48.971040Z","epoch_age_seconds":52633,"freshness":"FRESH","line1":"1 58137U 23162V   26145.18112235  .00001719  00000+0  71965-4 0  9998","line2":"2 58137  43.0026  60.6564 0001407 267.2073  92.8617 15.27578406144004","mean_motion":15.27578406,"eccentricity":0.0001407,"inclination_deg":43.0026,"raan_deg":60.6564,"arg_perigee_deg":267.2073,"mean_anomaly_deg":92.8617,"bstar":7.1965e-5,"rev_number":14400,"period_min":94.266847079272,"perigee_km":482.08849949797,"apogee_km":484.01923860852,"semimajor_km":6861.1908690532,"source":"CELESTRAK","updated_at":"2026-05-25T13:38:18.534915Z"}}